User: anonymous   Login
Location: Wingville
(42.9917°N, 90.4915°W)
Time: 12:28:49
(UTC+00:00)
Language:

Cosmos 1743 Rocket - Orbit

View from above orbital plane
View from above orbital plane
View from above satellite
View from above satellite

Ground track
Ground track

The orbit data is extracted from the following two-line orbital elements,

1 16720U 86034B   22338.08930806  .00000274  00000-0  30160-4 0  9996
2 16720  82.5536 180.3890 0020070   0.4734 116.2582 14.83673648975155
Epoch (UTC): 04 December 2022 02:08:36
Eccentricity: 0.0020070
inclination: 82.5536°
perigee height: 604 km
apogee height: 632 km
right ascension of ascending node: 180.3890°
argument of perigee: 0.4734°
revolutions per day: 14.83673648
mean anomaly at epoch: 116.2582°
orbit number at epoch: 97515

The dashed part of the orbit path shows where the satellite is in the earth's shadow,  

DLR